Tracking 19219 objects as of 19-Jul-2018
HD Live streaming from Space Station
objects crossing your sky now

FENGYUN 1C DEB

Track FENGYUN 1C DEB now!
10-day predictions


NORAD ID: 37442
Int'l Code: 1999-025EHL
Perigee: 688.2 km
Apogee: 750.2 km
Inclination: 99.1 °
Period: 99.0 minutes
Semi major axis: 7090 km
RCS: 0.0129 m2 (small)
Launch date: May 10, 1999
Source: People's Republic of China (PRC)
Launch site: Taiyaun Space Center, China (TSC)

Note: This is SATELLITE DEBRIS
aabbcc
Your satellite tracking list
Your tracking list is empty




NASA's NSSDC Master Catalog

Two Line Element Set (TLE):
1 37442U 99025EHL 18199.08573326  .00001625  00000-0  39228-3 0  9998
2 37442  99.1409 143.0234 0043730 338.6150  21.3216 14.54160667470167
Source of the keplerian elements: AFSPC